Regional Weather Roundup
Issued by NWS

Home | Current Version | Previous Version | Text Only | Print | Product List | Glossary Off
Versions: 1 2 3 4 5 6 7 8 9 10 11 12 13 14 15 16 17 18 19 20 21 22 23 24 25 26 27 28 29 30 31 32 33 34 35 36 37 38 39 40 41 42 43 44 45 46 47 48

000
ASUS43 KDMX 021407
RWRIA

WEATHER ROUNDUP FOR IOWA
NATIONAL WEATHER SERVICE DES MOINES IA
900 AM CDT TUE SEP 02 2014

NOTE: "FAIR" INDICATES FEW OR NO CLOUDS BELOW 12,000 FEET WITH NO
SIGNIFICANT WEATHER AND/OR OBSTRUCTIONS TO VISIBILITY.

* - THESE STATIONS ARE NOT NWS STATIONS...THUS NOT UNDER NWS
QUALITY CONTROL.  THEY ALSO DO NOT REPORT WEATHER SUCH
AS PRECIPITATION OR FOG.

IAZ001>003-012>014-020>022-031>034-043>046-021500-
   NORTHWEST IOWA

CITY           SKY/WX    TMP DP  RH WIND       PRES   REMARKS
CARROLL *      SUNNY     63  59  88 W5        29.98R
CHEROKEE *     SUNNY     59  59 100 SW5       29.98R
DENISON *      CLOUDY    57  57 100 CALM      29.98R FOG
LE MARS *      MOSUNNY   59  57  94 SW8       29.98R
ORANGE CITY *  SUNNY     61  57  88 SW6       29.97R
SHELDON *      SUNNY     61  59  94 SW5       29.96R
SIOUX CITY     SUNNY     62  58  86 SW3       29.98R
SPENCER        SUNNY     62  57  83 W7        29.96R
STORM LAKE *   SUNNY     61  61 100 W8        29.97R
$$

IAZ055>058-069>071-079>083-090>094-021500-
   SOUTHWEST IOWA

CITY           SKY/WX    TMP DP  RH WIND       PRES   REMARKS
ATLANTIC *     SUNNY     63  59  88 VRB3      29.99R
AUDUBON *      SUNNY     63  61  94 SW5       30.00R
CLARINDA *     SUNNY     68  63  83 NW5       30.01R
COUNCIL BLFS * SUNNY     63  63 100 CALM      30.00R
CRESTON *      SUNNY     64  59  82 NW8       29.99R
HARLAN  *      FOG       59  59 100 CALM      30.04R VSB 1
LAMONI         MOSUNNY   66  62  87 CALM      29.97R
RED OAK *      MOSUNNY   63  61  94 VRB5      30.01R
SHENANDOAH *   SUNNY     66  61  82 NW7       30.01R
$$

IAZ047>049-059>061-072>074-084-021500-
   CENTRAL IOWA

CITY           SKY/WX    TMP DP  RH WIND       PRES   REMARKS
AMES           SUNNY     65  60  84 W6        29.96R
ANKENY *       MOSUNNY   64  61  88 W5        29.97R
CHARITON *     SUNNY     66  63  88 NW8       29.97R
DES MOINES     MOSUNNY   66  59  78 W8        29.96R
GRINNELL*      SUNNY     64  59  82 NW6       29.96R
KNOXVILLE *    SUNNY     66  61  82 W5        29.95R
MARSHALLTOWN   SUNNY     65  58  78 CALM      29.94R
PELLA *        SUNNY     68  63  83 N5        29.96R
PERRY *          N/A     63  59  88 W3        29.98R
$$

IAZ004>006-015-016-023>025-035-036-021500-
   NORTH CENTRAL IOWA

CITY           SKY/WX    TMP DP  RH WIND       PRES   REMARKS
ALGONA *       SUNNY     64  59  82 SW5       29.95R
CLARION *      SUNNY     64  59  82 CALM      29.94S
ESTHERVILLE    SUNNY     63  57  81 W6        29.93S
FORT DODGE *   SUNNY     63  57  82 S6        29.96R
MASON CITY     SUNNY     65  60  84 S5        29.94S
FOREST CITY *  SUNNY     64  63  94 CALM      29.93R
IOWA FALLS *     N/A     64  55  72 NE3       29.95R
$$

IAZ007>011-017>019-026>030-037>042-050>054-066-021500-
   NORTHEAST IOWA

CITY           SKY/WX    TMP DP  RH WIND       PRES   REMARKS
CEDAR RAPIDS   MOSUNNY   65  60  84 N8        29.94S
CHARLES CITY * SUNNY     64  59  82 VRB3      29.93S
CLINTON *      MOSUNNY   66  64  94 NW8       29.95R
DECORAH *      SUNNY     61  59  94 CALM      29.92F
DUBUQUE        TSTM      59  58  96 W3        29.97R FOG
MONTICELLO *   LGT RAIN  61  61 100 CALM      29.94F
OELWEIN *      SUNNY     64  59  82 NE3       29.94S
WATERLOO       PTSUNNY   64  58  80 NE3       29.92S
$$

IAZ064-065-067-068-078-021500-
   EAST CENTRAL IOWA

CITY           SKY/WX    TMP DP  RH WIND       PRES   REMARKS
DAVENPORT      MOSUNNY   71  67  87 NW8       29.94R
IOWA CITY      PTSUNNY   66  61  84 N14       29.95R
MT. PLEASANT * SUNNY     70  66  88 CALM      29.95R
MUSCATINE *    MOSUNNY   70  64  83 NW8       29.93R
QUAD CITIES    MOSUNNY   69  65  86 W5        29.92R
$$

IAZ062-063-075>077-085>089-095>099-021500-
   SOUTHEAST IOWA

CITY           SKY/WX    TMP DP  RH WIND       PRES   REMARKS
BURLINGTON     PTSUNNY   69  67  93 NW5       29.93R
FAIRFIELD *    SUNNY     68  64  88 NW7       29.95R
FORT MADISON * SUNNY     72  70  94 CALM      29.95R
KEOKUK *       MOSUNNY   70  68  94 W5        29.94R
OSKALOOSA *      N/A     66  63  88 NW7       29.95S
CENTERVILLE *  SUNNY     66  66 100 NW3       29.98R
OTTUMWA        MOSUNNY   67  62  84 NW8       29.93R
WASHINGTON *   SUNNY     68  66  94 N8        29.95R
$$

ABBREVIATIONS USED IN REMARKS
   TC - TEMPERATURES IN CELSIUS
  WCI - WIND CHILL INDEX
   HX - HEAT INDEX
  VSB - VISIBILITY
$$




USA.gov is the U.S. government's official web portal to all federal, state and local government web resources and services.